TimePDT,TemperatureF,Dew PointF,Humidity,Sea Level PressureIn,VisibilityMPH,Wind Direction,Wind SpeedMPH,Gust SpeedMPH,PrecipitationIn,Events,Conditions,WindDirDegrees,DateUTC
12:53 AM,51.1,48.0,89,29.78,10.0,East,5.8,-,N/A,,Clear,80,2012-10-31 07:53:00
1:53 AM,51.1,48.9,92,29.78,10.0,SSE,4.6,-,N/A,,Clear,160,2012-10-31 08:53:00
2:53 AM,51.1,48.0,89,29.76,10.0,Calm,Calm,-,N/A,,Clear,0,2012-10-31 09:53:00
3:53 AM,53.1,48.0,83,29.74,10.0,Calm,Calm,-,N/A,,Clear,0,2012-10-31 10:53:00
4:53 AM,52.0,46.0,80,29.73,10.0,ENE,4.6,-,N/A,,Clear,70,2012-10-31 11:53:00
5:53 AM,50.0,48.0,93,29.73,9.0,SE,5.8,-,N/A,,Clear,140,2012-10-31 12:53:00
6:53 AM,52.0,46.0,80,29.70,10.0,East,3.5,-,N/A,,Clear,80,2012-10-31 13:53:00
7:53 AM,50.0,45.0,83,29.71,10.0,North,3.5,-,N/A,,Clear,360,2012-10-31 14:53:00
8:53 AM,55.0,43.0,64,29.71,10.0,Calm,Calm,-,N/A,,Clear,0,2012-10-31 15:53:00
9:53 AM,55.9,46.0,69,29.70,10.0,ENE,3.5,-,N/A,,Clear,60,2012-10-31 16:53:00
10:53 AM,64.9,37.9,37,29.68,10.0,SE,6.9,-,N/A,,Clear,130,2012-10-31 17:53:00
11:53 AM,64.4,41.0,42,29.70,10.0,ESE,6.9,-,N/A,,Clear,110,2012-10-31 18:53:00
12:53 PM,66.9,37.0,33,29.65,10.0,ESE,5.8,-,N/A,,Clear,110,2012-10-31 19:53:00
1:53 PM,66.0,39.0,37,29.63,10.0,SSE,5.8,-,N/A,,Clear,160,2012-10-31 20:53:00
2:53 PM,66.9,37.0,33,29.62,10.0,SSE,8.1,-,N/A,,Clear,160,2012-10-31 21:53:00
3:36 PM,53.6,51.8,94,29.65,1.8,NW,11.5,-,N/A,,Clear,310,2012-10-31 22:36:00
3:39 PM,51.8,51.8,100,29.64,0.8,NW,12.7,-,N/A,,Mist,320,2012-10-31 22:39:00
3:53 PM,51.1,51.1,100,29.64,0.2,NW,13.8,-,N/A,Fog,Fog,310,2012-10-31 22:53:00
4:48 PM,51.8,51.8,100,29.70,1.0,NW,16.1,-,N/A,,Mist,310,2012-10-31 23:48:00
4:53 PM,51.1,51.1,100,29.69,1.2,NW,15.0,-,N/A,,Mostly Cloudy,310,2012-10-31 23:53:00
5:03 PM,51.8,51.8,100,29.72,1.5,WNW,21.9,-,N/A,,Mostly Cloudy,290,2012-11-01 00:03:00
5:14 PM,51.8,51.8,100,29.72,4.0,WNW,17.3,26.5,N/A,,Mostly Cloudy,290,2012-11-01 00:14:00
5:53 PM,51.1,51.1,100,29.75,4.0,NNW,3.5,-,N/A,,Mostly Cloudy,340,2012-11-01 00:53:00
6:53 PM,54.0,48.9,83,29.78,10.0,West,5.8,-,N/A,,Scattered Clouds,280,2012-11-01 01:53:00
7:53 PM,53.6,48.2,82,29.80,10.0,SE,9.2,-,N/A,,Overcast,130,2012-11-01 02:53:00
8:53 PM,54.0,48.9,83,29.77,10.0,SE,6.9,-,0.00,,Overcast,130,2012-11-01 03:53:00
9:53 PM,53.1,48.0,83,29.77,10.0,East,4.6,-,0.00,,Overcast,100,2012-11-01 04:53:00
10:53 PM,52.0,48.0,86,29.77,10.0,North,6.9,-,N/A,,Mostly Cloudy,360,2012-11-01 05:53:00
11:53 PM,52.0,44.1,74,29.76,10.0,SW,3.5,-,N/A,,Scattered Clouds,230,2012-11-01 06:53:00